When you browse on this site, cookies collect data to enhance your experience and personalize the content and advertising you see.
Visit our Privacy Policy to learn more. By continuing to use the site, you agree to this use of cookies and data.
  • în România
  • Lista ţărilor
  • Pe 7 zile
  • Temperatura apei
  • Hartă satelitară
  • Meteo pe hartă
  • Widget-uri
  • user-avatar
    Intrare

    Meteo pe oră la New York

    Astăzi, 20 Februarie, Miercuri

    Timp Temperatura Precipitaţii Vânt Presiune Umiditate
    00:00 -4°C° 0 mm 3 m/s 777 mmHg 37%
    01:00 -3°C° 0 mm 2 m/s 777 mmHg 37%
    02:00 -3°C° 0 mm 2 m/s 776 mmHg 37%
    03:00 -1°C° 0 mm 1 m/s 776 mmHg 36%
    04:00 -1°C° 0 mm 1 m/s 776 mmHg 36%
    05:00 -1°C° 0 mm 1 m/s 776 mmHg 36%
    06:00 0°C° 0 mm 1 m/s 776 mmHg 36%
    07:00 0°C° 0 mm 1 m/s 776 mmHg 36%
    08:00 0°C° 0 mm 1 m/s 776 mmHg 36%
    09:00 0°C° 0 mm 1 m/s 776 mmHg 36%
    10:00 -1°C° 0 mm 2 m/s 776 mmHg 36%
    11:00 -1°C° 0.2 mm 2 m/s 776 mmHg 46%
    12:00 -1°C° 0.2 mm 2 m/s 775 mmHg 56%
    13:00 -1°C° 0.2 mm 2 m/s 774 mmHg 66%
    14:00 -1°C° 0.5 mm 2 m/s 774 mmHg 73%
    15:00 -1°C° 0.5 mm 2 m/s 773 mmHg 80%
    16:00 +1°C° 0.5 mm 1 m/s 772 mmHg 87%
    17:00 -1°C° 0.3 mm 2 m/s 771 mmHg 89%
    18:00 -1°C° 0.3 mm 3 m/s 770 mmHg 90%
    19:00 -1°C° 0.3 mm 4 m/s 769 mmHg 92%
    20:00 -1°C° 1.7 mm 4 m/s 768 mmHg 94%
    21:00 0°C° 1.7 mm 4 m/s 767 mmHg 95%
    22:00 +1°C° 1.7 mm 3 m/s 766 mmHg 97%
    23:00 +1°C° 3.5 mm 3 m/s 764 mmHg 98%

    Mâine, 21 Februarie, Joi

    Timp Temperatura Precipitaţii Vânt Presiune Umiditate
    00:00 +2°C° 3.5 mm 3 m/s 763 mmHg 98%
    01:00 +2°C° 3.5 mm 3 m/s 762 mmHg 99%
    02:00 +2°C° 0.9 mm 3 m/s 761 mmHg 99%
    03:00 +4°C° 0.9 mm 2 m/s 760 mmHg 99%
    04:00 +4°C° 0.9 mm 2 m/s 759 mmHg 99%
    05:00 +3°C° 0 mm 3 m/s 759 mmHg 99%
    06:00 +2°C° 0 mm 3 m/s 758 mmHg 99%
    07:00 +2°C° 0 mm 3 m/s 758 mmHg 99%
    08:00 +3°C° 0 mm 4 m/s 758 mmHg 95%
    09:00 +4°C° 0 mm 4 m/s 759 mmHg 92%
    10:00 +6°C° 0 mm 5 m/s 759 mmHg 89%
    11:00 +7°C° 0 mm 5 m/s 759 mmHg 76%
    12:00 +9°C° 0 mm 5 m/s 759 mmHg 64%
    13:00 +10°C° 0 mm 6 m/s 759 mmHg 51%
    14:00 +10°C° 0 mm 6 m/s 760 mmHg 50%
    15:00 +10°C° 0 mm 5 m/s 760 mmHg 48%
    16:00 +9°C° 0 mm 5 m/s 760 mmHg 47%
    17:00 +8°C° 0 mm 5 m/s 761 mmHg 52%
    18:00 +7°C° 0 mm 4 m/s 762 mmHg 57%
    19:00 +7°C° 0 mm 3 m/s 763 mmHg 61%
    20:00 +5°C° 0 mm 4 m/s 764 mmHg 62%
    21:00 +4°C° 0 mm 4 m/s 764 mmHg 62%
    22:00 +3°C° 0 mm 4 m/s 765 mmHg 62%
    23:00 +2°C° 0 mm 5 m/s 765 mmHg 62%

    Poimâine, 22 Februarie, Vineri

    Timp Temperatura Precipitaţii Vânt Presiune Umiditate
    00:00 +1°C° 0 mm 5 m/s 766 mmHg 62%
    01:00 +1°C° 0 mm 5 m/s 767 mmHg 61%
    02:00 +1°C° 0 mm 5 m/s 767 mmHg 62%
    03:00 +1°C° 0 mm 4 m/s 767 mmHg 63%
    04:00 +1°C° 0 mm 4 m/s 767 mmHg 64%
    05:00 0°C° 0 mm 4 m/s 768 mmHg 65%
    06:00 0°C° 0 mm 4 m/s 768 mmHg 66%
    07:00 +1°C° 0 mm 3 m/s 769 mmHg 67%
    08:00 +2°C° 0 mm 3 m/s 770 mmHg 63%
    09:00 +2°C° 0 mm 3 m/s 770 mmHg 58%
    10:00 +3°C° 0 mm 3 m/s 771 mmHg 54%
    11:00 +4°C° 0 mm 3 m/s 771 mmHg 51%
    12:00 +5°C° 0 mm 3 m/s 771 mmHg 49%
    13:00 +7°C° 0 mm 3 m/s 771 mmHg 46%
    14:00 +7°C° 0 mm 3 m/s 771 mmHg 47%
    15:00 +7°C° 0 mm 3 m/s 771 mmHg 48%
    16:00 +7°C° 0 mm 3 m/s 771 mmHg 50%
    17:00 +7°C° 0 mm 3 m/s 772 mmHg 53%
    18:00 +5°C° 0 mm 3 m/s 772 mmHg 56%
    19:00 +4°C° 0 mm 3 m/s 773 mmHg 59%
    20:00 +4°C° 0 mm 3 m/s 773 mmHg 59%
    21:00 +4°C° 0 mm 2 m/s 773 mmHg 60%
    22:00 +4°C° 0 mm 2 m/s 774 mmHg 61%
    23:00 +3°C° 0 mm 2 m/s 774 mmHg 62%

    23 Februarie, Sâmbătă

    Timp Temperatura Precipitaţii Vânt Presiune Umiditate
    00:00 +4°C° 0 mm 1 m/s 774 mmHg 64%
    01:00 +4°C° 0 mm 1 m/s 774 mmHg 65%
    02:00 +4°C° 0 mm 1 m/s 773 mmHg 67%
    03:00 +3°C° 0 mm 1 m/s 773 mmHg 68%
    04:00 +3°C° 0 mm 1 m/s 773 mmHg 70%
    05:00 +3°C° 0 mm 1 m/s 773 mmHg 70%
    06:00 +3°C° 0 mm 1 m/s 773 mmHg 70%
    07:00 +3°C° 0 mm 1 m/s 773 mmHg 70%
    08:00 +3°C° 0 mm 2 m/s 773 mmHg 66%
    09:00 +3°C° 0 mm 2 m/s 773 mmHg 62%
    10:00 +4°C° 0 mm 2 m/s 773 mmHg 58%
    11:00 +4°C° 0 mm 3 m/s 772 mmHg 58%
    12:00 +5°C° 0 mm 3 m/s 771 mmHg 58%
    13:00 +5°C° 0 mm 3 m/s 770 mmHg 58%
    14:00 +5°C° 0.1 mm 3 m/s 770 mmHg 61%
    15:00 +5°C° 0.1 mm 3 m/s 769 mmHg 65%
    16:00 +5°C° 0.1 mm 4 m/s 768 mmHg 68%
    17:00 +5°C° 0.4 mm 3 m/s 768 mmHg 73%
    18:00 +5°C° 0.4 mm 3 m/s 767 mmHg 78%
    19:00 +4°C° 0.4 mm 3 m/s 766 mmHg 83%
    20:00 +4°C° 1.3 mm 3 m/s 765 mmHg 87%
    21:00 +5°C° 1.3 mm 3 m/s 763 mmHg 91%
    22:00 +5°C° 1.3 mm 3 m/s 762 mmHg 95%
    23:00 +5°C° 1.4 mm 3 m/s 760 mmHg 96%

    24 Februarie, Duminică

    Timp Temperatura Precipitaţii Vânt Presiune Umiditate
    00:00 +5°C° 1.4 mm 3 m/s 759 mmHg 97%
    01:00 +7°C° 1.4 mm 3 m/s 757 mmHg 98%
    02:00 +7°C° 3.7 mm 2 m/s 756 mmHg 98%
    03:00 +7°C° 3.7 mm 2 m/s 755 mmHg 98%
    04:00 +8°C° 3.7 mm 1 m/s 753 mmHg 98%
    05:00 +8°C° 1.1 mm 1 m/s 752 mmHg 98%
    06:00 +8°C° 1.1 mm 2 m/s 752 mmHg 98%
    07:00 +8°C° 1.1 mm 2 m/s 751 mmHg 98%
    08:00 +9°C° 1.1 mm 3 m/s 750 mmHg 97%
    09:00 +11°C° 1.1 mm 4 m/s 748 mmHg 97%
    10:00 +12°C° 1.1 mm 5 m/s 747 mmHg 96%
    11:00 +15°C° 0.1 mm 6 m/s 746 mmHg 77%
    12:00 +17°C° 0.1 mm 8 m/s 746 mmHg 59%
    13:00 +19°C° 0.1 mm 10 m/s 745 mmHg 40%
    14:00 +17°C° 0 mm 11 m/s 745 mmHg 41%
    15:00 +14°C° 0 mm 11 m/s 746 mmHg 42%
    16:00 +12°C° 0 mm 11 m/s 746 mmHg 43%
    17:00 +11°C° 0 mm 11 m/s 747 mmHg 44%
    18:00 +9°C° 0 mm 11 m/s 747 mmHg 45%
    19:00 +8°C° 0 mm 11 m/s 748 mmHg 46%
    20:00 +8°C° 0 mm 11 m/s 748 mmHg 46%
    21:00 +7°C° 0 mm 11 m/s 748 mmHg 46%
    22:00 +6°C° 0 mm 11 m/s 749 mmHg 46%
    23:00 +4°C° 0 mm 11 m/s 749 mmHg 46%

    25 Februarie, Luni

    Timp Temperatura Precipitaţii Vânt Presiune Umiditate
    00:00 +4°C° 0 mm 11 m/s 750 mmHg 45%
    01:00 +3°C° 0 mm 11 m/s 750 mmHg 44%
    02:00 +2°C° 0 mm 11 m/s 751 mmHg 42%
    03:00 +2°C° 0 mm 11 m/s 751 mmHg 41%
    04:00 +1°C° 0 mm 11 m/s 752 mmHg 40%
    05:00 +1°C° 0 mm 11 m/s 753 mmHg 40%
    06:00 -1°C° 0 mm 11 m/s 755 mmHg 40%
    07:00 -2°C° 0 mm 11 m/s 756 mmHg 40%
    08:00 -1°C° 0 mm 11 m/s 757 mmHg 37%
    09:00 0°C° 0 mm 10 m/s 758 mmHg 34%
    10:00 0°C° 0 mm 10 m/s 759 mmHg 32%
    11:00 +1°C° 0 mm 10 m/s 760 mmHg 30%
    12:00 +1°C° 0 mm 10 m/s 761 mmHg 28%
    13:00 +2°C° 0 mm 10 m/s 762 mmHg 27%
    14:00 +1°C° 0 mm 10 m/s 763 mmHg 27%
    15:00 +1°C° 0 mm 9 m/s 764 mmHg 27%
    16:00 +1°C° 0 mm 9 m/s 765 mmHg 28%
    17:00 0°C° 0 mm 9 m/s 766 mmHg 30%
    18:00 -1°C° 0 mm 8 m/s 767 mmHg 32%
    19:00 -2°C° 0 mm 8 m/s 769 mmHg 34%
    20:00 -4°C° 0 mm 8 m/s 769 mmHg 34%
    21:00 -4°C° 0 mm 7 m/s 770 mmHg 34%
    22:00 -4°C° 0 mm 7 m/s 771 mmHg 34%
    23:00 -6°C° 0 mm 7 m/s 772 mmHg 33%
    Arată mai mult